Time,TemperatureF,DewpointF,PressureIn,WindDirection,WindDirectionDegrees,WindSpeedMPH,WindSpeedGustMPH,Humidity,HourlyPrecipIn,Conditions,Clouds,dailyrainin,SoftwareType,DateUTC
2013-02-28 00:02:00,33.0,33.0,-100.00,West,275,9.0,16.0,99,-99.99,,,-99.99,,2013-02-28 05:02:00,
2013-02-28 00:11:00,33.0,33.0,-100.00,WNW,285,10.0,14.0,99,-99.99,,,-99.99,,2013-02-28 05:11:00,
2013-02-28 00:22:00,33.0,33.0,-100.00,West,275,11.0,16.0,99,-99.99,,,-99.99,,2013-02-28 05:22:00,
2013-02-28 00:32:00,33.0,33.0,-100.00,West,270,10.0,16.0,99,-99.99,,,-99.99,,2013-02-28 05:32:00,
2013-02-28 00:42:00,33.0,33.0,-100.00,West,270,9.0,13.0,99,-99.99,,,-99.99,,2013-02-28 05:42:00,
2013-02-28 00:52:00,33.0,33.0,-100.00,WSW,255,7.0,11.0,99,-99.99,,,-99.99,,2013-02-28 05:52:00,
2013-02-28 01:01:00,33.0,33.0,-100.00,West,260,10.0,13.0,99,-99.99,,,-99.99,,2013-02-28 06:01:00,
2013-02-28 01:11:00,33.0,33.0,-100.00,WSW,255,9.0,12.0,99,-99.99,,,-99.99,,2013-02-28 06:11:00,
2013-02-28 01:22:00,33.0,33.0,-100.00,WSW,250,8.0,15.0,99,-99.99,,,-99.99,,2013-02-28 06:22:00,
2013-02-28 01:32:00,33.0,33.0,-100.00,West,270,7.0,14.0,99,-99.99,,,-99.99,,2013-02-28 06:32:00,
2013-02-28 01:42:00,33.0,33.0,-100.00,West,265,9.0,15.0,99,-99.99,,,-99.99,,2013-02-28 06:42:00,
2013-02-28 01:50:00,33.0,33.0,-100.00,West,275,9.0,15.0,99,-99.99,,,-99.99,,2013-02-28 06:50:00,
2013-02-28 01:52:00,33.0,33.0,-100.00,West,270,10.0,15.0,99,-99.99,,,-99.99,,2013-02-28 06:52:00,
2013-02-28 02:01:00,33.0,33.0,-100.00,West,280,9.0,17.0,99,-99.99,,,-99.99,,2013-02-28 07:01:00,
2013-02-28 02:11:00,33.0,33.0,-100.00,West,275,9.0,15.0,99,-99.99,,,-99.99,,2013-02-28 07:11:00,
2013-02-28 02:21:00,33.0,33.0,-100.00,West,275,9.0,15.0,99,-99.99,,,-99.99,,2013-02-28 07:21:00,
2013-02-28 02:32:00,33.0,33.0,-100.00,West,275,9.0,15.0,99,-99.99,,,-99.99,,2013-02-28 07:32:00,
2013-02-28 02:42:00,33.0,33.0,-100.00,West,275,9.0,15.0,99,-99.99,,,-99.99,,2013-02-28 07:42:00,
2013-02-28 03:22:00,32.0,32.0,-100.00,West,270,7.0,12.0,99,-99.99,,,-99.99,,2013-02-28 08:22:00,
2013-02-28 03:32:00,32.0,32.0,-100.00,West,270,6.0,11.0,100,-99.99,,,-99.99,,2013-02-28 08:32:00,
2013-02-28 03:42:00,32.0,32.0,-100.00,West,270,8.0,12.0,99,-99.99,,,-99.99,,2013-02-28 08:42:00,
2013-02-28 03:53:00,32.0,32.0,-100.00,West,270,9.0,16.0,99,-99.99,,,-99.99,,2013-02-28 08:53:00,
2013-02-28 04:03:00,32.0,32.0,-100.00,West,260,9.0,12.0,99,-99.99,,,-99.99,,2013-02-28 09:03:00,
2013-02-28 04:12:00,32.0,32.0,-100.00,West,265,10.0,14.0,99,-99.99,,,-99.99,,2013-02-28 09:12:00,
2013-02-28 04:22:00,32.0,32.0,-100.00,West,275,7.0,14.0,99,-99.99,,,-99.99,,2013-02-28 09:22:00,
2013-02-28 04:32:00,32.0,32.0,-100.00,West,280,9.0,14.0,99,-99.99,,,-99.99,,2013-02-28 09:32:00,
2013-02-28 04:42:00,32.0,32.0,-100.00,West,270,7.0,16.0,100,-99.99,,,-99.99,,2013-02-28 09:42:00,
2013-02-28 04:52:00,32.0,32.0,-100.00,West,275,10.0,16.0,100,-99.99,,,-99.99,,2013-02-28 09:52:00,
2013-02-28 05:02:00,32.0,32.0,-100.00,West,270,7.0,12.0,100,-99.99,,,-99.99,,2013-02-28 10:02:00,
2013-02-28 05:11:00,32.0,32.0,-100.00,West,275,7.0,12.0,100,-99.99,,,-99.99,,2013-02-28 10:11:00,
2013-02-28 05:22:00,32.0,32.0,-100.00,WSW,255,7.0,12.0,99,-99.99,,,-99.99,,2013-02-28 10:22:00,
2013-02-28 05:32:00,32.0,32.0,-100.00,West,270,7.0,14.0,99,-99.99,,,-99.99,,2013-02-28 10:32:00,
2013-02-28 05:42:00,32.0,32.0,-100.00,West,265,7.0,14.0,99,-99.99,,,-99.99,,2013-02-28 10:42:00,
2013-02-28 05:52:00,32.0,32.0,-100.00,WNW,285,11.0,17.0,99,-99.99,,,-99.99,,2013-02-28 10:52:00,
2013-02-28 06:02:00,32.0,32.0,-100.00,West,270,10.0,15.0,99,-99.99,,,-99.99,,2013-02-28 11:02:00,
2013-02-28 06:11:00,32.0,32.0,-100.00,West,275,6.0,15.0,99,-99.99,,,-99.99,,2013-02-28 11:11:00,
2013-02-28 06:22:00,32.0,32.0,-100.00,West,270,11.0,16.0,99,-99.99,,,-99.99,,2013-02-28 11:22:00,
2013-02-28 06:32:00,32.0,32.0,-100.00,West,280,12.0,16.0,99,-99.99,,,-99.99,,2013-02-28 11:32:00,
2013-02-28 06:42:00,32.0,32.0,-100.00,West,260,10.0,14.0,99,-99.99,,,-99.99,,2013-02-28 11:42:00,
2013-02-28 06:52:00,32.0,32.0,-100.00,West,270,9.0,14.0,99,-99.99,,,-99.99,,2013-02-28 11:52:00,
2013-02-28 07:02:00,32.0,32.0,-100.00,West,275,10.0,15.0,100,-99.99,,,-99.99,,2013-02-28 12:02:00,
2013-02-28 07:11:00,32.0,32.0,-100.00,West,275,9.0,15.0,99,-99.99,,,-99.99,,2013-02-28 12:11:00,
2013-02-28 07:22:00,32.0,32.0,-100.00,WSW,250,7.0,15.0,99,-99.99,,,-99.99,,2013-02-28 12:22:00,
2013-02-28 07:32:00,32.0,32.0,-100.00,West,275,9.0,13.0,99,-99.99,,,-99.99,,2013-02-28 12:32:00,
2013-02-28 07:42:00,32.0,32.0,-100.00,West,275,7.0,14.0,99,-99.99,,,-99.99,,2013-02-28 12:42:00,
2013-02-28 07:52:00,32.0,32.0,-100.00,West,270,9.0,13.0,99,-99.99,,,-99.99,,2013-02-28 12:52:00,
2013-02-28 08:02:00,32.0,32.0,-100.00,West,270,6.0,12.0,99,-99.99,,,-99.99,,2013-02-28 13:02:00,
2013-02-28 08:11:00,32.0,32.0,-100.00,West,275,7.0,12.0,99,-99.99,,,-99.99,,2013-02-28 13:11:00,
2013-02-28 08:22:00,32.0,32.0,-100.00,West,280,7.0,13.0,99,-99.99,,,-99.99,,2013-02-28 13:22:00,
2013-02-28 08:32:00,32.0,32.0,-100.00,WNW,285,7.0,14.0,99,-99.99,,,-99.99,,2013-02-28 13:32:00,
2013-02-28 08:42:00,32.0,32.0,-100.00,West,265,7.0,12.0,99,-99.99,,,-99.99,,2013-02-28 13:42:00,
2013-02-28 08:52:00,32.0,32.0,-100.00,West,265,7.0,11.0,99,-99.99,,,-99.99,,2013-02-28 13:52:00,
2013-02-28 09:02:00,32.0,32.0,-100.00,West,275,6.0,10.0,99,-99.99,,,-99.99,,2013-02-28 14:02:00,
2013-02-28 09:11:00,32.0,32.0,-100.00,WNW,285,6.0,11.0,99,-99.99,,,-99.99,,2013-02-28 14:11:00,
2013-02-28 09:22:00,32.0,32.0,-100.00,West,280,7.0,13.0,99,-99.99,,,-99.99,,2013-02-28 14:22:00,
2013-02-28 09:32:00,33.0,33.0,-100.00,West,270,10.0,14.0,99,-99.99,,,-99.99,,2013-02-28 14:32:00,
2013-02-28 09:42:00,33.0,33.0,-100.00,West,280,9.0,13.0,99,-99.99,,,-99.99,,2013-02-28 14:42:00,
2013-02-28 09:52:00,33.0,33.0,-100.00,WNW,285,7.0,12.0,99,-99.99,,,-99.99,,2013-02-28 14:52:00,
2013-02-28 10:02:00,33.0,33.0,-100.00,West,275,6.0,12.0,99,-99.99,,,-99.99,,2013-02-28 15:02:00,
2013-02-28 10:11:00,33.0,33.0,-100.00,West,280,8.0,13.0,99,-99.99,,,-99.99,,2013-02-28 15:11:00,
2013-02-28 10:22:00,33.0,33.0,-100.00,West,280,7.0,11.0,99,-99.99,,,-99.99,,2013-02-28 15:22:00,
2013-02-28 10:32:00,33.0,33.0,-100.00,WNW,285,6.0,12.0,99,-99.99,,,-99.99,,2013-02-28 15:32:00,
2013-02-28 10:42:00,33.0,33.0,-100.00,WNW,290,7.0,12.0,99,-99.99,,,-99.99,,2013-02-28 15:42:00,
2013-02-28 10:52:00,33.0,33.0,-100.00,West,280,7.0,13.0,99,-99.99,,,-99.99,,2013-02-28 15:52:00,
2013-02-28 11:02:00,33.0,33.0,-100.00,West,270,9.0,13.0,99,-99.99,,,-99.99,,2013-02-28 16:02:00,
2013-02-28 11:12:00,33.0,33.0,-100.00,WNW,300,6.0,12.0,99,-99.99,,,-99.99,,2013-02-28 16:12:00,
2013-02-28 11:22:00,33.0,33.0,-100.00,NW,310,6.0,10.0,99,-99.99,,,-99.99,,2013-02-28 16:22:00,
2013-02-28 11:32:00,33.0,33.0,-100.00,NW,310,6.0,11.0,99,-99.99,,,-99.99,,2013-02-28 16:32:00,
2013-02-28 11:42:00,33.0,33.0,-100.00,NW,305,7.0,12.0,99,-99.99,,,-99.99,,2013-02-28 16:42:00,
2013-02-28 11:52:00,33.0,33.0,-100.00,NW,320,8.0,12.0,99,-99.99,,,-99.99,,2013-02-28 16:52:00,
2013-02-28 12:02:00,33.0,33.0,-100.00,NW,305,8.0,15.0,99,-99.99,,,-99.99,,2013-02-28 17:02:00,
2013-02-28 12:12:00,33.0,33.0,-100.00,NW,305,6.0,12.0,99,-99.99,,,-99.99,,2013-02-28 17:12:00,
2013-02-28 12:22:00,33.0,33.0,-100.00,NW,325,9.0,12.0,99,-99.99,,,-99.99,,2013-02-28 17:22:00,
2013-02-28 12:32:00,33.0,33.0,-100.00,North,0,6.0,14.0,99,-99.99,,,-99.99,,2013-02-28 17:32:00,
2013-02-28 12:42:00,33.0,33.0,-100.00,North,0,6.0,10.0,99,-99.99,,,-99.99,,2013-02-28 17:42:00,
2013-02-28 12:52:00,33.0,33.0,-100.00,NW,315,7.0,12.0,99,-99.99,,,-99.99,,2013-02-28 17:52:00,
2013-02-28 13:02:00,33.0,33.0,-100.00,NW,315,6.0,12.0,99,-99.99,,,-99.99,,2013-02-28 18:02:00,
2013-02-28 13:11:00,33.0,33.0,-100.00,North,5,6.0,12.0,99,-99.99,,,-99.99,,2013-02-28 18:11:00,
2013-02-28 13:22:00,33.0,33.0,-100.00,North,0,11.0,14.0,99,-99.99,,,-99.99,,2013-02-28 18:22:00,
2013-02-28 13:32:00,33.0,33.0,-100.00,NNW,340,7.0,12.0,100,-99.99,,,-99.99,,2013-02-28 18:32:00,
2013-02-28 13:42:00,33.0,33.0,-100.00,North,0,6.0,12.0,99,-99.99,,,-99.99,,2013-02-28 18:42:00,
2013-02-28 13:52:00,33.0,33.0,-100.00,NNE,15,9.0,14.0,99,-99.99,,,-99.99,,2013-02-28 18:52:00,
2013-02-28 14:02:00,33.0,33.0,-100.00,North,0,9.0,15.0,100,-99.99,,,-99.99,,2013-02-28 19:02:00,
2013-02-28 14:11:00,33.0,33.0,-100.00,NNE,15,6.0,16.0,100,-99.99,,,-99.99,,2013-02-28 19:11:00,
2013-02-28 14:22:00,33.0,33.0,-100.00,North,355,7.0,13.0,99,-99.99,,,-99.99,,2013-02-28 19:22:00,
2013-02-28 14:32:00,33.0,33.0,-100.00,North,350,7.0,12.0,99,-99.99,,,-99.99,,2013-02-28 19:32:00,
2013-02-28 14:42:00,33.0,33.0,-100.00,North,350,7.0,12.0,99,-99.99,,,-99.99,,2013-02-28 19:42:00,
2013-02-28 14:52:00,33.0,33.0,-100.00,North,350,7.0,12.0,99,-99.99,,,-99.99,,2013-02-28 19:52:00,
2013-02-28 15:01:00,33.0,33.0,-100.00,North,350,7.0,12.0,99,-99.99,,,-99.99,,2013-02-28 20:01:00,
2013-02-28 15:12:00,33.0,33.0,-100.00,North,0,7.0,12.0,99,-99.99,,,-99.99,,2013-02-28 20:12:00,
2013-02-28 15:22:00,33.0,33.0,-100.00,North,0,9.0,14.0,99,-99.99,,,-99.99,,2013-02-28 20:22:00,
2013-02-28 15:32:00,33.0,33.0,-100.00,North,0,7.0,12.0,99,-99.99,,,-99.99,,2013-02-28 20:32:00,
2013-02-28 15:42:00,33.0,33.0,-100.00,North,0,7.0,12.0,99,-99.99,,,-99.99,,2013-02-28 20:42:00,
2013-02-28 15:52:00,33.0,33.0,-100.00,North,0,6.0,12.0,99,-99.99,,,-99.99,,2013-02-28 20:52:00,
2013-02-28 16:02:00,33.0,33.0,-100.00,North,0,9.0,12.0,99,-99.99,,,-99.99,,2013-02-28 21:02:00,
2013-02-28 16:11:00,33.0,33.0,-100.00,North,5,6.0,13.0,99,-99.99,,,-99.99,,2013-02-28 21:11:00,
2013-02-28 16:22:00,33.0,33.0,-100.00,North,0,6.0,14.0,99,-99.99,,,-99.99,,2013-02-28 21:22:00,
2013-02-28 16:32:00,33.0,33.0,-100.00,North,0,9.0,13.0,99,-99.99,,,-99.99,,2013-02-28 21:32:00,
2013-02-28 16:42:00,33.0,33.0,-100.00,North,0,10.0,16.0,99,-99.99,,,-99.99,,2013-02-28 21:42:00,
2013-02-28 16:52:00,33.0,33.0,-100.00,North,0,10.0,16.0,99,-99.99,,,-99.99,,2013-02-28 21:52:00,
2013-02-28 17:01:00,33.0,33.0,-100.00,North,0,11.0,17.0,99,-99.99,,,-99.99,,2013-02-28 22:01:00,
2013-02-28 17:11:00,33.0,33.0,-100.00,North,355,9.0,16.0,99,-99.99,,,-99.99,,2013-02-28 22:11:00,
2013-02-28 17:22:00,33.0,33.0,-100.00,NNE,15,12.0,19.0,99,-99.99,,,-99.99,,2013-02-28 22:22:00,
2013-02-28 17:32:00,33.0,33.0,-100.00,North,5,6.0,14.0,99,-99.99,,,-99.99,,2013-02-28 22:32:00,
2013-02-28 17:42:00,33.0,33.0,-100.00,North,0,11.0,17.0,99,-99.99,,,-99.99,,2013-02-28 22:42:00,
2013-02-28 17:52:00,33.0,33.0,-100.00,North,0,8.0,15.0,99,-99.99,,,-99.99,,2013-02-28 22:52:00,
2013-02-28 18:01:00,33.0,33.0,-100.00,North,0,9.0,16.0,99,-99.99,,,-99.99,,2013-02-28 23:01:00,
2013-02-28 18:11:00,32.0,32.0,-100.00,North,355,9.0,14.0,99,-99.99,,,-99.99,,2013-02-28 23:11:00,
2013-02-28 18:22:00,32.0,32.0,-100.00,North,10,11.0,18.0,99,-99.99,,,-99.99,,2013-02-28 23:22:00,
2013-02-28 18:32:00,32.0,32.0,-100.00,North,10,11.0,18.0,99,-99.99,,,-99.99,,2013-02-28 23:32:00,
2013-02-28 18:42:00,32.0,32.0,-100.00,North,10,9.0,16.0,99,-99.99,,,-99.99,,2013-02-28 23:42:00,
2013-02-28 18:52:00,32.0,32.0,-100.00,North,0,12.0,19.0,99,-99.99,,,-99.99,,2013-02-28 23:52:00,
2013-02-28 19:02:00,32.0,32.0,-100.00,North,0,9.0,21.0,99,-99.99,,,-99.99,,2013-03-01 00:02:00,
2013-02-28 19:11:00,32.0,32.0,-100.00,North,355,7.0,17.0,99,-99.99,,,-99.99,,2013-03-01 00:11:00,
2013-02-28 19:22:00,32.0,32.0,-100.00,North,0,9.0,19.0,99,-99.99,,,-99.99,,2013-03-01 00:22:00,
2013-02-28 19:32:00,31.0,31.0,-100.00,North,0,12.0,19.0,99,-99.99,,,-99.99,,2013-03-01 00:32:00,
2013-02-28 19:42:00,31.0,31.0,-100.00,NNE,15,8.0,16.0,99,-99.99,,,-99.99,,2013-03-01 00:42:00,
2013-02-28 19:51:00,31.0,31.0,-100.00,NNE,15,12.0,16.0,99,-99.99,,,-99.99,,2013-03-01 00:51:00,
2013-02-28 20:01:00,31.0,31.0,-100.00,NNE,20,7.0,17.0,99,-99.99,,,-99.99,,2013-03-01 01:01:00,
2013-02-28 20:11:00,31.0,31.0,-100.00,North,5,9.0,17.0,99,-99.99,,,-99.99,,2013-03-01 01:11:00,
2013-02-28 20:21:00,31.0,31.0,-100.00,North,5,11.0,21.0,99,-99.99,,,-99.99,,2013-03-01 01:21:00,
2013-02-28 20:32:00,31.0,31.0,-100.00,North,0,11.0,17.0,99,-99.99,,,-99.99,,2013-03-01 01:32:00,
2013-02-28 20:42:00,31.0,31.0,-100.00,North,0,9.0,16.0,99,-99.99,,,-99.99,,2013-03-01 01:42:00,
2013-02-28 20:51:00,31.0,31.0,-100.00,North,0,11.0,16.0,99,-99.99,,,-99.99,,2013-03-01 01:51:00,
2013-02-28 21:01:00,31.0,31.0,-100.00,North,0,9.0,16.0,99,-99.99,,,-99.99,,2013-03-01 02:01:00,
2013-02-28 21:11:00,31.0,31.0,-100.00,North,5,11.0,18.0,99,-99.99,,,-99.99,,2013-03-01 02:11:00,
2013-02-28 21:21:00,31.0,31.0,-100.00,North,10,12.0,22.0,99,-99.99,,,-99.99,,2013-03-01 02:21:00,
2013-02-28 21:32:00,31.0,31.0,-100.00,North,0,11.0,15.0,99,-99.99,,,-99.99,,2013-03-01 02:32:00,
2013-02-28 21:42:00,31.0,31.0,-100.00,North,350,11.0,19.0,99,-99.99,,,-99.99,,2013-03-01 02:42:00,
2013-02-28 21:52:00,31.0,31.0,-100.00,NNE,15,7.0,15.0,99,-99.99,,,-99.99,,2013-03-01 02:52:00,
2013-02-28 22:02:00,31.0,31.0,-100.00,NNW,345,8.0,15.0,99,-99.99,,,-99.99,,2013-03-01 03:02:00,
2013-02-28 22:11:00,31.0,31.0,-100.00,North,0,11.0,16.0,99,-99.99,,,-99.99,,2013-03-01 03:11:00,
2013-02-28 22:21:00,31.0,31.0,-100.00,NNE,15,9.0,16.0,100,-99.99,,,-99.99,,2013-03-01 03:21:00,
2013-02-28 22:32:00,31.0,31.0,-100.00,North,0,9.0,15.0,99,-99.99,,,-99.99,,2013-03-01 03:32:00,
2013-02-28 22:42:00,30.0,30.0,-100.00,North,0,10.0,17.0,100,-99.99,,,-99.99,,2013-03-01 03:42:00,
2013-02-28 22:51:00,30.0,30.0,-100.00,North,0,8.0,18.0,99,-99.99,,,-99.99,,2013-03-01 03:51:00,
2013-02-28 23:01:00,30.0,30.0,-100.00,North,0,10.0,18.0,99,-99.99,,,-99.99,,2013-03-01 04:01:00,
2013-02-28 23:11:00,30.0,30.0,-100.00,North,5,9.0,15.0,99,-99.99,,,-99.99,,2013-03-01 04:11:00,
2013-02-28 23:21:00,30.0,30.0,-100.00,North,5,9.0,15.0,99,-99.99,,,-99.99,,2013-03-01 04:21:00,
2013-02-28 23:32:00,30.0,30.0,-100.00,North,0,9.0,13.0,100,-99.99,,,-99.99,,2013-03-01 04:32:00,
2013-02-28 23:42:00,30.0,30.0,-100.00,NNE,15,9.0,17.0,99,-99.99,,,-99.99,,2013-03-01 04:42:00,
2013-02-28 23:52:00,30.0,30.0,-100.00,North,0,7.0,16.0,99,-99.99,,,-99.99,,2013-03-01 04:52:00,